EW9525 Weather Reports


time (UTC)temp
F
wind
direction
speed
knots
gust
knots
rain 1hr
in
rain 24hr
in
rain mn
in
humidity
%
barometer
mb
20260905073039 79 135 2.6 4.3 0.00 0.00 0.00 59 1007.2
20260905071538 79 166 4.3 7.0 0.00 0.00 0.00 60 1007.2
20260905070036 79 169 5.2 7.8 0.00 0.00 0.00 59 1007.1
20260905064535 79 214 5.2 7.8 0.00 0.00 0.00 59 1006.9
20260905063032 80 182 5.2 7.8 0.00 0.00 0.00 58 1007.1
20260905061528 81 171 5.2 10.4 0.00 0.00 0.00 56 1007.0
20260905060026 81 179 5.2 8.7 0.00 0.00 0.00 55 1006.7
20260905054523 82 141 6.1 10.4 0.00 0.00 0.00 54 1006.6
20260905053020 83 193 7.8 12.2 0.00 0.00 0.00 52 1006.5
20260905051517 83 167 7.8 13.9 0.00 0.00 0.00 52 1006.6
20260905050017 83 188 7.8 11.3 0.00 0.00 0.00 52 1006.8
20260905044516 83 167 7.0 11.3 0.00 0.00 0.00 51 1006.9
20260905043022 84 177 7.8 12.2 0.00 0.00 0.00 50 1006.9
20260905041514 84 168 9.6 12.2 0.00 0.00 0.00 50 1007.1
20260905040013 84 160 7.0 11.3 0.00 0.00 0.00 50 1007.2
20260905034516 84 150 6.1 9.6 0.00 0.00 0.00 50 1007.0
20260905033020 85 146 6.1 10.4 0.00 0.00 0.00 49 1006.9
20260905031512 86 141 5.2 11.3 0.00 0.00 0.00 48 1006.8
20260905030022 87 134 7.8 13.9 0.00 0.00 0.00 46 1006.6
20260905024512 87 129 9.6 13.9 0.00 0.00 0.00 45 1006.3
20260905023010 87 127 10.4 13.9 0.00 0.00 0.00 45 1006.2
20260905021509 87 107 7.8 13.0 0.00 0.00 0.00 46 1006.1
20260905020010 88 127 8.7 12.2 0.00 0.00 0.00 46 1005.7
20260905014510 88 119 7.8 13.0 0.00 0.00 0.00 46 1005.3
20260905013012 90 124 7.8 13.9 0.00 0.00 0.00 44 1005.2
20260905011508 90 104 7.8 14.8 0.00 0.00 0.00 43 1005.0
20260905010013 92 137 9.6 14.8 0.00 0.00 0.00 42 1004.9
20260905004514 93 124 8.7 11.3 0.00 0.00 0.00 40 1004.8
20260905003009 94 121 7.0 11.3 0.00 0.00 0.00 39 1004.9
20260905001526 96 117 5.2 13.0 0.00 0.00 0.00 38 1004.8
20260905000007 96 141 7.8 13.0 0.00 0.00 0.00 36 1004.8
20260904234514 96 131 8.7 12.2 0.00 0.00 0.00 37 1004.7
20260904233014 95 117 5.2 11.3 0.00 0.00 0.00 37 1004.6
20260904231505 96 159 7.0 10.4 0.00 0.00 0.00 36 1004.6
20260904230005 96 149 6.1 12.2 0.00 0.00 0.00 35 1004.6
20260904224506 98 141 9.6 16.5 0.00 0.00 0.00 35 1004.6
20260904223002 97 142 7.8 14.8 0.00 0.00 0.00 35 1004.6
20260904221603 97 123 12.2 17.4 0.00 0.00 0.00 35 1004.6
20260904220059 97 106 8.7 15.6 0.00 0.00 0.00 36 1004.8
20260904214602 97 117 11.3 16.5 0.00 0.00 0.00 35 1004.8
20260904213055 96 127 8.7 13.0 0.00 0.00 0.00 34 1005.0
20260904211555 96 148 8.7 13.0 0.00 0.00 0.00 35 1005.2
20260904204558 97 131 7.0 13.9 0.00 0.00 0.00 31 1005.2
20260904203100 96 155 11.3 16.5 0.00 0.00 0.00 35 1005.4
20260904201548 95 144 7.8 15.6 0.00 0.00 0.00 37 1005.5
20260904200051 94 160 9.6 14.8 0.00 0.00 0.00 36 1005.5
20260904194548 95 132 9.6 13.9 0.00 0.00 0.00 39 1005.5
20260904193103 96 153 10.4 18.2 0.00 0.00 0.00 34 1005.5
20260904191552 95 129 10.4 16.5 0.00 0.00 0.00 36 1005.6
20260904190040 94 131 10.4 14.8 0.00 0.00 0.00 40 1005.8
20260904184538 94 141 10.4 14.8 0.00 0.00 0.00 42 1005.8
20260904183033 92 103 8.7 13.9 0.00 0.00 0.00 43 1006.1
20260904181533 91 95 7.0 14.8 0.00 0.00 0.00 46 1006.4
20260904180027 91 137 10.4 15.6 0.00 0.00 0.00 44 1006.7
20260904174524 89 143 7.8 12.2 0.00 0.00 0.00 48 1006.9
20260904173042 86 148 7.0 12.2 0.00 0.00 0.00 48 1007.1
20260904171519 85 124 5.2 8.7 0.00 0.00 0.00 50 1007.3
20260904170019 84 110 4.3 13.0 0.00 0.00 0.00 53 1007.3
20260904164516 85 148 7.8 10.4 0.00 0.00 0.00 53 1007.2
20260904163015 85 140 6.1 11.3 0.00 0.00 0.00 52 1006.9
20260904161512 83 155 7.0 8.7 0.00 0.00 0.00 54 1006.9
20260904160008 82 104 5.2 7.0 0.00 0.00 0.00 57 1007.0
20260904154507 82 95 2.6 5.2 0.00 0.00 0.00 57 1007.1
20260904153005 81 148 7.0 9.6 0.00 0.00 0.00 59 1006.9
20260904151506 80 125 7.0 11.3 0.00 0.00 0.00 60 1006.9
20260904150002 81 222 2.6 9.6 0.00 0.00 0.00 59 1007.2
20260904144610 79 88 0.9 3.5 0.00 0.00 0.00 61 1007.2
20260904143100 77 144 2.6 7.8 0.00 0.00 0.00 66 1007.0
20260904141554 76 138 3.5 7.0 0.00 0.00 0.00 68 1007.0
20260904140047 75 103 2.6 4.3 0.00 0.00 0.00 67 1007.1
20260904134546 73 316 1.7 3.5 0.00 0.00 0.00 74 1007.0
20260904133051 74 113 0.0 0.9 0.00 0.00 0.00 71 1006.8
20260904131540 72 136 0.0 2.6 0.00 0.00 0.00 72 1006.6
20260904130040 71 127 0.0 6.1 0.00 0.00 0.00 73 1006.2
20260904124542 69 110 0.9 1.7 0.00 0.00 0.00 74 1006.2
20260904123039 68 93 1.7 2.6 0.00 0.00 0.00 76 1006.1
20260904121539 68 96 0.9 3.5 0.00 0.00 0.00 77 1006.1
20260904120042 68 82 1.7 2.6 0.00 0.00 0.00 77 1006.1
20260904114540 68 110 1.7 2.6 0.00 0.00 0.00 76 1006.1
20260904113038 68 77 0.0 0.9 0.00 0.00 0.00 76 1006.1
20260904111537 68 84 0.9 1.7 0.00 0.00 0.00 76 1006.1
20260904110037 69 101 0.0 0.0 0.00 0.00 0.00 73 1006.2
20260904104539 69 86 0.0 0.0 0.00 0.00 0.00 75 1006.2
20260904103035 69 100 0.0 0.0 0.00 0.00 0.00 74 1006.1
20260904101534 69 214 0.0 0.0 0.00 0.00 0.00 75 1006.0
20260904100036 68 213 0.0 0.0 0.00 0.00 0.00 75 1006.0
20260904094533 70 201 0.0 2.6 0.00 0.00 0.00 73 1006.1
20260904093033 71 201 1.7 2.6 0.00 0.00 0.00 72 1006.1
20260904091547 72 186 0.0 2.6 0.00 0.00 0.00 70 1006.0
20260904090031 73 188 3.5 7.8 0.00 0.00 0.00 67 1006.0
20260904084528 72 138 0.9 4.3 0.00 0.00 0.00 71 1005.9
20260904083030 71 137 0.0 3.5 0.00 0.00 0.00 74 1005.8
20260904081525 70 121 2.6 5.2 0.00 0.00 0.00 75 1005.8
20260904080024 70 324 0.0 0.0 0.00 0.00 0.00 75 1005.8
20260904074544 71 101 2.6 6.1 0.00 0.00 0.00 75 1006.0